[[{"header":{"parameterUnit":"m.s-1","parameterCategory":2,"la1":30.2992,"la2":30.254,"lo1":-89.0895,"lo2":-89.0443,"dy":0.0025,"dx":0.0025,"nx":19,"ny":19,"refTime":"2026-04-29T03:00:00:Z","depth":"0","parameterNumber":2,"parameterNumberName":"U-component_of_CURRENTS"},"data":[0,0,0,0.1113,0.1116,0.1219,0.122,0.1295,0.1296,0,0,0,0,0,0,0,0,0,0,0,0.1058,0.1059,0.1113,0.1116,0.1219,0.122,0.1295,0.1296,0,0,0,0,0,0,0,0,0,0,0,0.1058,0.1059,0.106,0.1117,0.1219,0.122,0.1295,0.1226,0,0,0,0,0,0,0,0,0,0,0.1131,0.1064,0.1059,0.106,0.1117,0.1219,0.122,0.1223,0.1231,0.1238,0,0.1257,0,0.1295,0.1301,0.1302,0,0,0,0.1097,0.1058,0.1125,0.106,0.1119,0.1219,0.1167,0.1228,0.1236,0.1247,0.1259,0.1263,0.1296,0.1302,0.1302,0.1384,0.1384,0,0,0.1092,0.1039,0.112,0.113,0.115,0.1164,0.1171,0.1233,0.1219,0.1259,0.1265,0.1298,0.1302,0.1303,0.1384,0.1384,0,0,0,0.1088,0.1034,0.11,0.1126,0.1159,0.1168,0.1175,0.1215,0.1248,0.1267,0.1298,0.1303,0.1304,0.1384,0.1384,0.1368,0,0,0,0.1083,0.1036,0.1097,0.1061,0.1158,0.119,0.1155,0.1243,0.1252,0.1298,0.1303,0.1305,0.1383,0.1384,0.1367,0.1336,0,0,0,0.1053,0.1031,0.1054,0.1059,0.112,0.119,0.1224,0.1246,0.1273,0.1302,0.1305,0.1383,0.1384,0.1367,0.1337,0.1349,0,0,0,0.0982,0.1028,0.1051,0.1093,0.1119,0.1198,0.1224,0.1266,0.1289,0.1303,0.1383,0.1384,0.1367,0.1337,0.1349,0.1341,0.134,0,0,0.1013,0.1028,0.1057,0.1084,0.115,0.1182,0.123,0.1271,0.1302,0.1355,0.1357,0.1367,0.1337,0.1349,0.138,0.1377,0,0,0,0.105,0.1072,0.1093,0.113,0.1184,0.1213,0.1265,0.1291,0.1342,0.1326,0.1386,0.1367,0.1375,0.1372,0.137,0.1253,0.1387,0.1387,0.1387,0.1004,0.1056,0.1089,0.1154,0.1184,0.1239,0.1265,0.1312,0.1346,0.137,0.1368,0.1382,0.138,0.1378,0.1257,0.1398,0.1398,0.1398,0.1398,0.1039,0.1062,0.1086,0.1146,0.117,0.1205,0.1271,0.1301,0.1355,0.1374,0.1384,0.1372,0.1375,0.1247,0.1397,0.1398,0.1398,0.1398,0.1398,0.1007,0.1029,0.1061,0.111,0.1128,0.1176,0.1208,0.1261,0.1324,0.1337,0.1358,0.1358,0.1233,0.1357,0.1357,0.1357,0.1357,0.1357,0.1356,0.0961,0.1003,0.1023,0.107,0.1076,0.1101,0.1169,0.1214,0.1285,0.1326,0.1327,0.1222,0.1369,0.1356,0.1355,0.1356,0.1356,0.1356,0.1356,0.0963,0.0959,0.0991,0.1,0.1029,0.1035,0.1107,0.1198,0.1254,0.1291,0.1179,0.1334,0.1336,0.1338,0.1325,0.1316,0.1316,0.1316,0.1316,0.0928,0.0941,0.0959,0.0967,0.0981,0.1006,0.1041,0.1108,0.1137,0.1101,0.1095,0.1084,0.1091,0.1078,0.1086,0.1067,0.0993,0.0992,0.0992,0.0914,0.0918,0.0916,0.0938,0.0956,0.0977,0.0969,0.0921,0.0935,0.0965,0.0929,0.0943,0.0913,0.0934,0.0908,0.0928,0.0896,0,0]},{"header":{"parameterUnit":"m.s-1","parameterCategory":2,"la1":30.2992,"la2":30.254,"lo1":-89.0895,"lo2":-89.0443,"dy":0.0025,"dx":0.0025,"nx":19,"ny":19,"refTime":"2026-04-29T03:00:00:Z","depth":"0","parameterNumber":3,"parameterNumberName":"V-component_of_CURRENTS"},"data":[0,0,0,-0.0074,-0.0076,-0.0157,-0.0158,-0.0218,-0.0219,0,0,0,0,0,0,0,0,0,0,0,-0.004,-0.004,-0.0074,-0.0076,-0.0157,-0.0158,-0.0218,-0.0219,0,0,0,0,0,0,0,0,0,0,0,-0.004,-0.004,-0.0041,-0.0077,-0.0157,-0.0158,-0.0218,-0.0167,0,0,0,0,0,0,0,0,0,0,-0.0094,-0.0061,-0.004,-0.0041,-0.0077,-0.0157,-0.0158,-0.0165,-0.0171,-0.017,0,-0.0182,0,-0.0205,-0.0222,-0.0222,0,0,0,-0.0075,-0.0057,-0.0088,-0.0041,-0.0078,-0.0157,-0.012,-0.0169,-0.0174,-0.0176,-0.0183,-0.0186,-0.0206,-0.0222,-0.0223,-0.0215,-0.0215,0,0,-0.007,-0.0047,-0.0084,-0.0091,-0.0098,-0.0118,-0.0123,-0.0173,-0.0171,-0.0183,-0.0188,-0.0207,-0.0223,-0.0223,-0.0215,-0.0215,0,0,0,-0.0059,-0.0043,-0.0073,-0.0088,-0.0108,-0.012,-0.0126,-0.0169,-0.0182,-0.0188,-0.0207,-0.0223,-0.0224,-0.0216,-0.0215,-0.0173,0,0,0,-0.0056,-0.0037,-0.0071,-0.0057,-0.0108,-0.0144,-0.0121,-0.0178,-0.0185,-0.0207,-0.0223,-0.0224,-0.0216,-0.0216,-0.0175,-0.0153,0,0,0,-0.0036,-0.0035,-0.0046,-0.0055,-0.0093,-0.0144,-0.016,-0.018,-0.0196,-0.0222,-0.0224,-0.0217,-0.0216,-0.0177,-0.0157,-0.0107,0,0,0,-0.0007,-0.0031,-0.0045,-0.0069,-0.0092,-0.0128,-0.016,-0.0185,-0.0204,-0.0223,-0.0216,-0.0215,-0.0178,-0.0159,-0.0109,-0.0022,-0.0004,0,0,-0.0024,-0.0032,-0.0046,-0.0061,-0.0087,-0.0117,-0.0125,-0.0163,-0.0185,-0.0198,-0.0199,-0.0175,-0.0157,-0.0107,0.0039,0.0056,0,0,0,-0.0043,-0.0051,-0.0061,-0.0078,-0.0103,-0.0103,-0.0142,-0.0143,-0.0151,-0.0193,-0.0165,-0.0155,-0.0125,-0.0077,-0.0064,-0.0037,-0.021,-0.0211,-0.0211,-0.0022,-0.0041,-0.0054,-0.0074,-0.0082,-0.0092,-0.0085,-0.0089,-0.0125,-0.0109,-0.0113,-0.0037,0.0014,0.0025,0.0051,-0.0107,-0.0107,-0.0107,-0.0107,-0.003,-0.0033,-0.0038,-0.006,-0.0049,-0.0049,-0.0034,-0.004,-0.0013,-0.0056,-0.0029,-0.0027,0.0043,0.0065,-0.0104,-0.0105,-0.0105,-0.0105,-0.0105,-0.0006,-0.0011,-0.0026,-0.0031,-0.0016,-0.0016,0.0036,0.003,0.003,0.0055,0.0109,0.0109,0.0123,0.0066,0.0067,0.0067,0.0067,0.0068,0.0068,0.0027,0.0011,0.0015,-0.0,0.0014,0.0041,0.0075,0.0116,0.0168,0.0172,0.0173,0.0167,0.0016,0.0003,0.0073,0.0072,0.0071,0.0071,0.0071,0.0051,0.005,0.006,0.0069,0.0095,0.0165,0.018,0.0294,0.0322,0.0375,0.0357,0.0243,0.0242,0.0231,0.0224,0.0347,0.0347,0.0347,0.0347,0.0089,0.0079,0.0116,0.0142,0.0185,0.0227,0.0395,0.0483,0.052,0.0534,0.0484,0.0462,0.045,0.0458,0.0442,0.0437,0.0612,0.0612,0.0612,0.0123,0.013,0.0169,0.0178,0.0223,0.0324,0.0509,0.0653,0.0665,0.062,0.0507,0.0495,0.0455,0.0433,0.0433,0.0409,0.0396,0,0]}],[{"header":{"parameterUnit":"m.s-1","parameterCategory":2,"la1":30.2992,"la2":30.254,"lo1":-89.0895,"lo2":-89.0443,"dy":0.0025,"dx":0.0025,"nx":19,"ny":19,"refTime":"2026-04-29T03:00:00:Z","depth":"2","parameterNumber":2,"parameterNumberName":"U-component_of_CURRENTS"},"data":[0,0,0,0.0735,0.0737,0.0794,0.0794,0.0893,0.0894,0,0,0,0,0,0,0,0,0,0,0,0.069,0.069,0.0735,0.0737,0.0794,0.0794,0.0893,0.0894,0,0,0,0,0,0,0,0,0,0,0,0.069,0.069,0.069,0.0737,0.0794,0.0794,0.0892,0.0842,0,0,0,0,0,0,0,0,0,0,0.0782,0.0729,0.069,0.069,0.0738,0.0794,0.0794,0.0839,0.0845,0.0876,0,0.0868,0,0.0898,0.0901,0.0902,0,0,0,0.0732,0.0724,0.0755,0.069,0.0738,0.0794,0.0767,0.0842,0.0849,0.0884,0.087,0.0874,0.09,0.0902,0.0903,0.1026,0.1026,0,0,0.0729,0.0693,0.0749,0.0758,0.0733,0.0765,0.0769,0.0846,0.0836,0.087,0.0877,0.0901,0.0903,0.0904,0.1025,0.1026,0,0,0,0.0723,0.069,0.0718,0.0753,0.077,0.0767,0.0771,0.0832,0.0845,0.0878,0.0902,0.0904,0.0905,0.1025,0.1025,0.1043,0,0,0,0.0721,0.0688,0.0716,0.0694,0.0768,0.0798,0.0755,0.0838,0.0849,0.0902,0.0904,0.0906,0.1024,0.1025,0.1042,0.101,0,0,0,0.0691,0.0685,0.0688,0.0692,0.0724,0.0797,0.0813,0.0841,0.0865,0.0902,0.0906,0.1024,0.1025,0.104,0.1009,0.1032,0,0,0,0.0659,0.069,0.0686,0.0713,0.0723,0.0799,0.0813,0.0869,0.0902,0.0904,0.1024,0.1025,0.104,0.1008,0.1032,0.0957,0.0955,0,0,0.0698,0.0693,0.071,0.0711,0.0768,0.0792,0.0862,0.0907,0.093,0.0998,0.1001,0.1042,0.1009,0.1032,0.1024,0.102,0,0,0,0.0724,0.0735,0.075,0.0766,0.0811,0.0845,0.0906,0.0939,0.1003,0.0957,0.1061,0.1039,0.1053,0.1007,0.1005,0.1031,0.1031,0.103,0.103,0.0728,0.0748,0.0776,0.0808,0.0844,0.0901,0.0938,0.0995,0.1033,0.1068,0.107,0.1114,0.1068,0.1064,0.1109,0.1109,0.1109,0.1109,0.1109,0.0764,0.0778,0.0785,0.083,0.0852,0.091,0.0987,0.1018,0.1094,0.1104,0.112,0.1047,0.1062,0.1111,0.111,0.111,0.111,0.111,0.111,0.0758,0.0775,0.079,0.0819,0.0856,0.0908,0.0958,0.1018,0.1086,0.1107,0.1077,0.1076,0.1101,0.1137,0.1137,0.1137,0.1137,0.1137,0.1137,0.0744,0.0771,0.0783,0.0812,0.0826,0.0859,0.0938,0.0988,0.1041,0.1064,0.1064,0.1123,0.1122,0.1103,0.1137,0.1137,0.1137,0.1137,0.1137,0.0756,0.0759,0.0764,0.077,0.079,0.0778,0.086,0.0917,0.0984,0.0993,0.1048,0.105,0.103,0.1032,0.1011,0.1018,0.1018,0.1018,0.1018,0.0741,0.075,0.0738,0.0737,0.074,0.0743,0.0711,0.0709,0.0806,0.0808,0.0816,0.0789,0.0799,0.0764,0.0772,0.0745,0.0683,0.0683,0.0682,0.0721,0.0712,0.0694,0.0703,0.071,0.0686,0.0576,0.0455,0.0513,0.0666,0.073,0.1001,0.0986,0.0992,0.0958,0.0963,0.0927,0,0]},{"header":{"parameterUnit":"m.s-1","parameterCategory":2,"la1":30.2992,"la2":30.254,"lo1":-89.0895,"lo2":-89.0443,"dy":0.0025,"dx":0.0025,"nx":19,"ny":19,"refTime":"2026-04-29T03:00:00:Z","depth":"2","parameterNumber":3,"parameterNumberName":"V-component_of_CURRENTS"},"data":[0,0,0,-0.0137,-0.0139,-0.0232,-0.0232,-0.0309,-0.031,0,0,0,0,0,0,0,0,0,0,0,-0.0114,-0.0114,-0.0137,-0.0139,-0.0232,-0.0232,-0.0309,-0.031,0,0,0,0,0,0,0,0,0,0,0,-0.0113,-0.0114,-0.0115,-0.014,-0.0232,-0.0232,-0.0309,-0.0249,0,0,0,0,0,0,0,0,0,0,-0.0165,-0.0125,-0.0114,-0.0115,-0.014,-0.0232,-0.0232,-0.0247,-0.0253,-0.0255,0,-0.0281,0,-0.0293,-0.0314,-0.0314,0,0,0,-0.0139,-0.012,-0.0168,-0.0115,-0.0141,-0.0231,-0.019,-0.0251,-0.0257,-0.0263,-0.0282,-0.0285,-0.0295,-0.0314,-0.0314,-0.0312,-0.0312,0,0,-0.0134,-0.0105,-0.0163,-0.0173,-0.0179,-0.0187,-0.0193,-0.0255,-0.0253,-0.0282,-0.0287,-0.0296,-0.0315,-0.0315,-0.0313,-0.0312,0,0,0,-0.012,-0.0101,-0.0148,-0.0169,-0.0188,-0.019,-0.0196,-0.025,-0.0273,-0.0288,-0.0297,-0.0315,-0.0316,-0.0313,-0.0313,-0.0266,0,0,0,-0.0116,-0.0094,-0.0146,-0.0126,-0.0187,-0.0219,-0.019,-0.0269,-0.0277,-0.0296,-0.0315,-0.0316,-0.0314,-0.0313,-0.0268,-0.0244,0,0,0,-0.0107,-0.0091,-0.0112,-0.0125,-0.0167,-0.0219,-0.0245,-0.0271,-0.0282,-0.0314,-0.0317,-0.0314,-0.0313,-0.0271,-0.0248,-0.0196,0,0,0,-0.006,-0.0096,-0.0111,-0.0137,-0.0167,-0.0209,-0.0244,-0.0271,-0.0295,-0.0315,-0.0314,-0.0313,-0.0271,-0.025,-0.0199,-0.0109,-0.0089,0,0,-0.0083,-0.0098,-0.0111,-0.0128,-0.016,-0.0196,-0.0201,-0.025,-0.0275,-0.0292,-0.0293,-0.0268,-0.0248,-0.0197,-0.0041,-0.0023,0,0,0,-0.0102,-0.0116,-0.0126,-0.0144,-0.0176,-0.0179,-0.0225,-0.0228,-0.0239,-0.0285,-0.0257,-0.0245,-0.0215,-0.0166,-0.0151,-0.0307,-0.0307,-0.0307,-0.0307,-0.0084,-0.0103,-0.0116,-0.0142,-0.0153,-0.0167,-0.0162,-0.017,-0.0212,-0.0194,-0.0199,-0.0118,-0.0064,-0.0053,-0.0193,-0.0192,-0.0192,-0.0192,-0.0192,-0.0096,-0.0099,-0.01,-0.0125,-0.0119,-0.0121,-0.0108,-0.0116,-0.0089,-0.0136,-0.0108,-0.0109,-0.0034,-0.0188,-0.0189,-0.0189,-0.019,-0.019,-0.019,-0.0072,-0.0079,-0.0092,-0.0098,-0.0085,-0.0086,-0.0033,-0.0041,-0.0041,-0.0016,0.0037,0.0037,-0.0087,-0.0006,-0.0005,-0.0005,-0.0005,-0.0005,-0.0004,-0.0041,-0.0059,-0.0054,-0.0068,-0.0054,-0.0024,0.0008,0.005,0.0102,0.0106,0.0106,-0.0055,-0.0061,-0.0075,0.0001,0.0,-0.0001,-0.0001,-0.0002,-0.002,-0.002,-0.0009,0.0001,0.003,0.0105,0.0121,0.0238,0.0265,0.0319,0.0186,0.0179,0.0177,0.0165,0.0157,0.0289,0.0289,0.0289,0.0289,0.0018,0.0009,0.0047,0.0074,0.0125,0.0169,0.0331,0.0397,0.0404,0.0378,0.0373,0.0343,0.033,0.0332,0.0317,0.0309,0.0481,0.0481,0.0481,0.0052,0.006,0.01,0.0111,0.0164,0.027,0.0436,0.0508,0.0481,0.0483,0.0343,0.0314,0.0256,0.0241,0.0229,0.021,0.0192,0,0]}],[{"header":{"parameterUnit":"m.s-1","parameterCategory":2,"la1":30.2992,"la2":30.254,"lo1":-89.0895,"lo2":-89.0443,"dy":0.0025,"dx":0.0025,"nx":19,"ny":19,"refTime":"2026-04-29T03:00:00:Z","depth":"4","parameterNumber":2,"parameterNumberName":"U-component_of_CURRENTS"},"data":[0,0,0,-0.0446,-0.0449,-0.0564,-0.0564,-0.0591,-0.0591,0,0,0,0,0,0,0,0,0,0,0,-0.0409,-0.041,-0.0446,-0.0449,-0.0564,-0.0564,-0.0591,-0.0591,0,0,0,0,0,0,0,0,0,0,0,-0.0409,-0.041,-0.0412,-0.045,-0.0564,-0.0564,-0.0591,-0.0531,0,0,0,0,0,0,0,0,0,0,-0.0434,-0.0391,-0.041,-0.0412,-0.045,-0.0564,-0.0564,-0.053,-0.0535,-0.0507,0,-0.0542,0,-0.0568,-0.059,-0.059,0,0,0,-0.0439,-0.0386,-0.0449,-0.0412,-0.0452,-0.0564,-0.0509,-0.0534,-0.0539,-0.0513,-0.0543,-0.0545,-0.0568,-0.059,-0.059,-0.0634,-0.0634,0,0,-0.0433,-0.0393,-0.0446,-0.0454,-0.0501,-0.0506,-0.0513,-0.0538,-0.053,-0.0543,-0.0546,-0.0569,-0.059,-0.059,-0.0633,-0.0634,0,0,0,-0.0421,-0.0388,-0.0452,-0.0452,-0.0483,-0.0509,-0.0518,-0.0529,-0.0561,-0.0546,-0.0569,-0.059,-0.059,-0.0633,-0.0633,-0.0515,0,0,0,-0.0417,-0.0383,-0.0449,-0.0421,-0.0484,-0.0516,-0.0507,-0.0559,-0.0563,-0.0569,-0.059,-0.059,-0.0632,-0.0633,-0.0517,-0.0444,0,0,0,-0.04,-0.0379,-0.0408,-0.042,-0.0478,-0.0518,-0.0549,-0.0561,-0.0576,-0.059,-0.059,-0.0632,-0.0633,-0.0519,-0.0449,-0.0385,0,0,0,-0.0335,-0.039,-0.0406,-0.0452,-0.0478,-0.0552,-0.055,-0.0584,-0.0598,-0.059,-0.0632,-0.0633,-0.0519,-0.0452,-0.0389,-0.0436,0,0,0,-0.0374,-0.0392,-0.042,-0.0439,-0.0511,-0.0534,-0.0564,-0.058,-0.0605,-0.0612,-0.0614,-0.0516,-0.0449,-0.0386,-0.0507,0,0,0,0,-0.0411,-0.0437,-0.0457,-0.0498,-0.0549,-0.0547,-0.0592,-0.0594,-0.059,-0.0624,-0.0574,-0.0536,-0.0498,-0.0541,-0.0639,-0.0639,-0.0639,-0.0639,-0.0638,-0.0382,-0.0429,-0.0466,-0.0524,-0.0543,-0.0565,-0.0548,-0.0563,-0.0587,-0.0578,-0.0482,-0.041,-0.0459,-0.0545,-0.0545,-0.0544,-0.0544,-0.0544,-0.0543,-0.0414,-0.0439,-0.0452,-0.0502,-0.0498,-0.0496,-0.048,-0.0473,-0.0409,-0.0461,-0.043,-0.0469,-0.0533,-0.0535,-0.0537,-0.0538,-0.0539,-0.0539,-0.054,-0.0391,-0.0417,-0.0437,-0.0466,-0.0415,-0.0394,-0.0314,-0.0277,-0.0288,-0.0232,-0.0274,-0.033,-0.0289,-0.0198,-0.0198,-0.0197,-0.0197,-0.0196,-0.0196,-0.0361,-0.04,-0.0406,-0.0407,-0.0363,-0.0277,-0.0176,-0.016,-0.0138,-0.0142,-0.017,-0.0294,-0.0305,-0.0272,-0.0187,-0.0188,-0.0189,-0.019,-0.0191,-0.0382,-0.0385,-0.0391,-0.0368,-0.0295,-0.0232,-0.013,-0.0079,-0.0035,-0.005,-0.0118,-0.0124,-0.0163,-0.0177,-0.014,-0.0012,-0.0012,-0.0013,0,-0.0371,-0.0382,-0.0376,-0.0345,-0.0288,-0.0222,-0.0149,-0.0121,-0.0096,-0.0076,-0.0101,-0.018,-0.0184,-0.0238,-0.0251,-0.0214,0,0,0,-0.0373,-0.0366,-0.0352,-0.0352,-0.0289,-0.0225,-0.0137,-0.0111,-0.0069,-0.008,-0.0018,-0.0017,-0.0232,-0.0159,-0.0234,-0.0248,-0.0197,0,0]},{"header":{"parameterUnit":"m.s-1","parameterCategory":2,"la1":30.2992,"la2":30.254,"lo1":-89.0895,"lo2":-89.0443,"dy":0.0025,"dx":0.0025,"nx":19,"ny":19,"refTime":"2026-04-29T03:00:00:Z","depth":"4","parameterNumber":3,"parameterNumberName":"V-component_of_CURRENTS"},"data":[0,0,0,0.0406,0.0408,0.0502,0.0503,0.0603,0.0604,0,0,0,0,0,0,0,0,0,0,0,0.038,0.0381,0.0406,0.0408,0.0502,0.0503,0.0603,0.0604,0,0,0,0,0,0,0,0,0,0,0,0.038,0.0381,0.0382,0.0408,0.0502,0.0503,0.0603,0.0537,0,0,0,0,0,0,0,0,0,0,0.0448,0.0412,0.038,0.0382,0.0409,0.0502,0.0503,0.0534,0.0541,0.0554,0,0.0577,0,0.0589,0.061,0.061,0,0,0,0.0409,0.0406,0.0445,0.0382,0.041,0.0502,0.046,0.0538,0.0546,0.0563,0.0578,0.0582,0.0591,0.0611,0.0611,0.0744,0.0744,0,0,0.0404,0.0382,0.044,0.0451,0.0445,0.0457,0.0463,0.0543,0.0547,0.0579,0.0585,0.0593,0.0611,0.0612,0.0743,0.0744,0,0,0,0.0388,0.0379,0.0416,0.0446,0.0464,0.046,0.0467,0.0543,0.0561,0.0586,0.0594,0.0612,0.0613,0.0742,0.0743,0.0662,0,0,0,0.0385,0.037,0.0414,0.04,0.0462,0.0503,0.0465,0.0555,0.0565,0.0593,0.0612,0.0614,0.0741,0.0743,0.0663,0.0659,0,0,0,0.0374,0.0367,0.0385,0.0399,0.044,0.0503,0.0524,0.0558,0.0569,0.061,0.0614,0.0741,0.0742,0.0663,0.0659,0.0634,0,0,0,0.0339,0.0367,0.0385,0.041,0.044,0.0496,0.0524,0.0588,0.0628,0.0612,0.0741,0.0743,0.0663,0.0659,0.0635,0.0569,0,0,0,0.0355,0.0369,0.0382,0.04,0.044,0.0482,0.0536,0.0616,0.0659,0.0712,0.0715,0.0663,0.0659,0.0635,0.0679,0,0,0,0,0.0373,0.0394,0.0401,0.0433,0.0469,0.0525,0.0603,0.0617,0.068,0.0691,0.0723,0.0726,0.0711,0.0678,0.0752,0.0752,0.0752,0.0751,0.0751,0.0358,0.0388,0.0427,0.0484,0.0518,0.0576,0.0601,0.0654,0.0685,0.0714,0.0702,0.0695,0.0662,0.0738,0.0737,0.0737,0.0737,0.0737,0.0736,0.0384,0.0415,0.0467,0.0545,0.0595,0.0659,0.0651,0.066,0.066,0.0695,0.0682,0.0651,0.073,0.0731,0.0732,0.0733,0.0734,0.0734,0.0734,0.0371,0.0402,0.0499,0.0616,0.0681,0.0717,0.0687,0.0665,0.0639,0.0609,0.0596,0.0663,0.0619,0.0603,0.0603,0.0603,0.0603,0.0603,0.0602,0.0334,0.0427,0.0536,0.0657,0.0735,0.0747,0.0706,0.0655,0.0611,0.0543,0.0608,0.0651,0.0655,0.0616,0.06,0.0601,0.0601,0.0601,0.0601,0.0318,0.0398,0.0527,0.0636,0.0738,0.0698,0.0709,0.0582,0.0518,0.0442,0.0497,0.0503,0.0531,0.0539,0.0496,0.0444,0.0443,0.0442,0,0.0303,0.0339,0.0505,0.0605,0.0625,0.0637,0.053,0.0468,0.0408,0.0399,0.0467,0.0531,0.0534,0.057,0.0575,0.0527,0,0,0,0.0295,0.0348,0.0417,0.0528,0.0551,0.0466,0.0466,0.0411,0.0476,0.0374,0.0419,0.0425,0.0531,0.0595,0.0653,0.0658,0.0598,0,0]}]]